Weather in Proletarsky

Russia / Belgorod Oblast     50°47′34″N   35°46′19″E
temp.,
°C
wind,
m/s
gust,
m/s
humid.,
%
clouds,
%
prec.,
mm/h
press.,
hPa
HPBL,
m
9 march, tue
tue900:00−3wnw359390 0.1 1011317
03:00−4nw469195 0.9 1012367
06:00−7nnw599192 0.1 1013375
09:00−8nnw578696 0.1 1015413
12:00−6nnw568094 0.0 1017701
15:00−5nnw567396 0.1 1019959
18:00−6nnw5774100 0.1 1020900
21:00−7nnw478382 0.1 1022655
10 march, wed
wed1000:00−9nnw47840 0.0 1024348
03:00−10nnw35850 0.0 1025269
06:00−11nnw24870 0.0 1026187
09:00−10nw238216 0.0 1027257
12:00−7nw226523 0.0 1027526
15:00−5wnw235511 0.0 1026775
18:00−5nnw12650 0.0 1025245
21:00−7n127823 0.0 102691
11 march, thu
thu1100:00−7nnw117652 0.0 102655
03:00−8n228042 0.0 102785
06:00−9nne23880 0.0 1028150
09:00−9ne358716 0.0 1029255
12:00−6e467894 0.1 1029550
15:00−5e456997 0.1 1029743
18:00−6e4565100 0.0 1029742
21:00−7e466480 0.0 1030378
12 march, fri
fri1200:00−8se485316 0.0 1030440
03:00−9se58508 0.0 1031405
06:00−9se58500 0.0 1031353
09:00−8sse694714 0.0 1031440
12:00−6sse6937100 0.0 1030643
15:00−4sse6931100 0.0 1028891
18:00−4sse7113294 0.0 1026833
21:00−4s7133596 0.0 1026807
13 march, sat
sat1300:00−4s81435100 0.0 1026828
03:00−4s91545100 0.0 1024836
06:00−5s81456100 0.1 1023743
09:00−5s91589100 0.6 1023666
12:00−2s91390100 0.8 1023669
15:000ssw71191100 1.1 1022725
18:000ssw61196100 0.4 1021598
21:000ssw61198100 1.2 1021564